www.pogodaiklimat.ru

Погода и климат >> Архив погоды >> Россия >> Астраханская область >> Лиман


ПОГОДА в Лимане

  • Прогноз погоды в Лимане
  • Монитор погоды в Лимане

АРХИВ ПОГОДЫ в Лимане

Время (UTC), дата Ветер
(напр.,м/с)
 
Видим.   Явления Облачность Т
(С)
Тd
(С)
f
(%)
Тe
(С)
Тes
(С)
Комфортность P
(гПа)
Po
(гПа)
Тmin
(С)
Tmax
(С)
R
(мм)
R24
(мм)
S
(см)
09 13.09 В 3 20 км 3/3 600 м
[Cu Sc]
+25.0 +6.5 31 +25 +32 комфорт 1025.3 1027.1
12 13.09 В 3 20 км 10/6 600 м
[Cu Sc Cs]
+23.7 +6.7 33 +24 +25 комфорт 1024.1 1025.9
15 13.09 ЮВ 1 20 км 1/1 600 м
[Sc diur, vesp]
+20.8 +8.1 44 +23 +23 комфорт 1023.5 1025.3 +26.7
18 13.09 Ю 1 20 км ясно +16.7 +8.6 59 +18 +18 1023.9 1025.8
21 13.09 ЮЗ 2 20 км ясно +14.6 +9.2 70 +14 +14 1023.4 1025.2
00 14.09 штиль 0 20 км ясно +11.4 +8.6 83 +11 +11 1023.3 1025.2
03 14.09 штиль 0 20 км ясно +10.0 +8.1 88 +9 +9 1023.5 1025.4 +9.8
06 14.09 СЗ 1 20 км ясно +21.8 +10.8 50 +24 +31 комфорт 1023.2 1025.1
09 14.09 ЮВ 2 20 км 4/1 600 м
[Cu hum Ci fib]
+26.0 +6.4 29 +26 +35 жарко 1022.3 1024.1
12 14.09 ЮВ 3 20 км 4/1 600 м
[Cu hum Ci fib]
+25.6 +5.4 27 +25 +29 комфорт 1021.1 1022.9
15 14.09 ЮВ 2 20 км ясно +21.9 +5.4 34 +22 +22 комфорт 1020.9 1022.7 +26.7
18 14.09 ЮВ 2 20 км ясно +16.5 +10.9 69 +17 +17 1020.9 1022.8
21 14.09 ЮВ 2 20 км ясно +15.1 +12.6 85 +15 +15 1020.2 1022.1
00 15.09 ЮВ 1 4000 м дымка ясно +13.9 +12.7 92 +14 +14 1019.2 1021.1
03 15.09 В 1 2000 м дымка ясно +10.8 +9.6 92 +10 +10 1019.4 1021.3 +10.4
06 15.09 ЮВ 2 20 км {туман} ясно +22.3 +14.8 63 +26 +32 жарко 1019.9 1021.7
09 15.09 ЮВ 2 20 км 3/3 600 м
[Cu med, cong]
+26.0 +9.2 35 +26 +34 жарко 1018.2 1020.0
12 15.09 ЮВ 3 20 км 9/9 600 м
[Cb cap]
+23.4 +14.8 58 +27 +28 душно 1017.2 1019.0
15 15.09 ЮВ 2 20 км {гроза} 8/6 600 м
[Cb cap Ci sp]
+20.7 +14.8 69 +24 +24 комфорт 1017.0 1018.8 +26.3
18 15.09 ЮВ 2 20 км {гроза} ясно +18.6 +16.9 90 +20 +20 1017.7 1019.5
21 15.09 Ю 1 4000 м дымка ясно +17.2 +15.9 92 +18 +18 1017.6 1019.4
00 16.09 С 1 20 км ясно +12.8 +10.2 84 +13 +13 1018.7 1020.6
03 16.09 С 1 20 км ясно +10.9 +9.0 88 +11 +11 1019.7 1021.6 +10.9
06 16.09 СВ 1 20 км ясно +20.1 +9.9 52 +23 +30 комфорт 1019.6 1021.4
09 16.09 В 1 20 км ясно +24.1 +3.7 27 +24 +37 комфорт 1017.8 1019.6
12 16.09 СВ 1 20 км ясно +26.8 +4.8 24 +26 +32 жарко 1015.1 1016.9
15 16.09 ЮВ 2 20 км ясно +22.9 +10.9 47 +25 +25 комфорт 1014.0 1015.8 +27.5
18 16.09 ЮВ 2 20 км ясно +17.7 +14.5 82 +18 +18 1014.0 1015.8
21 16.09 ЮВ 1 20 км ясно +16.1 +14.5 90 +17 +17 1013.1 1014.9
00 17.09 ЮВ 2 200 м туман ?/? +16.5 +15.8 96 +17 +17 1012.2 1014.0
03 17.09 Ю 2 200 м туман ?/? +17.5 +16.9 96 +18 +18 1012.4 1014.2 +15.9
06 17.09 Ю 2 1000 м в посл. час туман 10/10 300 м
[St]
+19.8 +19.1 96 +23 +23 комфорт 1012.3 1014.1
09 17.09 ЮЗ 2 20 км 9/6 600 м
[Sc Ac trans Ci sp]
+24.9 +15.0 54 +28 +30 жарко 1010.8 1012.6
12 17.09 Ю 1 20 км 10/6 600 м
[Sc Ac trans]
+26.4 +13.2 44 +28 +29 жарко 1009.3 1011.1
15 17.09 З 3
{11}
20 км 10/10 600 м
[Sc]
+21.8 +9.1 44 +23 +23 комфорт 1009.8 1011.6 +27.2
18 17.09 Ю 2 10 км слаб. ливневой дождь 10/10 600 м
[Cb cap]
+16.7 +14.9 89 +17 +17 1010.6 1012.4
21 17.09 ЮЗ 2 4000 м дымка {ливн. осадки} 8/0
[Ac trans Ci fib]
+16.3 +14.9 91 +16 +16 1009.5 1011.4
00 18.09 ЮЗ 3 20 км {ливн. осадки} 8/0
[Ac trans Ci fib]
+15.3 +13.5 89 +15 +15 1009.7 1011.5
03 18.09 З 2 20 км 4/0
[Ac trans]
+13.9 +11.9 88 +13 +13 1011.3 1013.2 +13.9 3
06 18.09 ЮЗ 2 20 км ясно +20.5 +13.7 65 +24 +29 комфорт 1013.1 1014.9 +13.9
09 18.09 ЮЗ 3 20 км ясно +25.3 +11.3 42 +27 +36 жарко 1012.7 1014.4
12 18.09 ЮЗ 3
{10}
20 км 6/6 600 м
[Cu Sc]
+27.2 +9.4 33 +28 +29 жарко 1011.5 1013.2
15 18.09 ЮЗ 2 20 км ясно +25.2 +10.2 39 +26 +26 жарко 1010.7 1012.5 +28.3
18 18.09 Ю 4 20 км ясно +21.0 +12.1 57 +24 +24 комфорт 1010.6 1012.4
21 18.09 Ю 4 20 км 3/0
[Ac trans]
+19.9 +13.4 66 +22 +22 комфорт 1010.9 1012.7
00 19.09 З 2
{10}
20 км 3/0
[Ci fib]
+17.7 +12.5 72 +18 +18 1013.7 1015.6
03 19.09 З 2 20 км ясно +14.6 +9.5 71 +14 +14 1015.6 1017.5 +14.6
06 19.09 СЗ 5-10
{10}
20 км пыльный позёмок 6/0
[Ac trans]
+18.7 +5.9 43 +19 +21 1018.0 1019.9
09 19.09 З 3
{11}
20 км 9/4 600 м
[Sc Ac trans]
+19.3 +1.2 30 +20 +22 1019.4 1021.2
12 19.09 З 3 20 км 10/3 600 м
[Sc Ac As]
+18.7 +0.6 30 +19 +20 1019.7 1021.5
15 19.09 Ю 1 20 км 8/0
[Ac As]
+17.5 +1.2 33 +19 +19 1020.0 1021.8 +20.1
18 19.09 ЮЗ 1 20 км 6/0
[Ac trans]
+14.4 +2.3 44 +15 +15 1020.7 1022.6
21 19.09 штиль 0 20 км 10/0
[Ac As]
+13.7 +2.1 45 +14 +14 1020.2 1022.0
00 20.09 штиль 0 20 км 10/10 600 м
[Sc]
+12.8 +5.4 61 +13 +13 1020.2 1022.1
03 20.09 С 1 20 км 9/9 600 м
[Sc]
+11.9 +6.1 68 +12 +12 1020.0 1021.9 +11.9
06 20.09 В 2 20 км 8/6 600 м
[Sc Ci sp]
+18.9 +4.1 38 +20 +22 1019.7 1021.5

 

Местоположение метеостанции Лиман (Астраханская область, Россия): широта 45.80 долгота 47.22 высота над уровнем моря -18 м.

В архиве по умолчанию представлена погода в Лимане за последнюю неделю. Архивные данные за месяц целиком и за предыдущие месяцы, начиная с января 2011 года, Вы можете получить, выбрав интересующий диапазон дат из раскрывающегося списка и нажав кнопку "Ввод!".


*Определитесь, кто Вы:
робот инопланетянин человек

Внимание! Время в таблицах - всемирное. Для получения местного времени необходимо прибавить поправку, которая равна 4 ч.

Смотрите также архив погоды в соседних городах и на ближайших метеорологических станциях:

Погода в Лагани (Калмыкия, Россия) (46 км)
Погода в Астрахани (Астраханская область, Россия) (79 км)
Погода в Артезиане (Калмыкия, Россия) (102 км)
Погода в Комсомольском (Калмыкия, Россия) (105 км)
Погода в Утте (Калмыкия, Россия) (112 км)
Погода в Зеленге (Астраханская область, Россия) (116 км)
Погода в Досанге (Астраханская область, Россия) (136 км)
Погода на Острове Тюлений (Дагестан, Россия) (149 км)
Погода в Яшкуле (Калмыкия, Россия) (151 км)
Погода в Юсте (Калмыкия, Россия) (163 км)

Пояснения к столбцам:

Ветер - указаны скорость ветра в м/с - средняя за 10 мин, порывы в срок и между сроками (в фигурных скобках) и направление, откуда дует ветер: С - северный, СВ - северо-восточный, В - восточный, ЮВ - юго-восточный, Ю - южный, ЮЗ - юго-западный, З - западный, СЗ - северо-западный.
Видимость - горизонтальная дальность видимости в метрах или километрах. При видимости от 1 до 10 км при отсутствии осадков обычно наблюдается дымка, при ухудшении видимости до 1 км и менее - туман. В сухую погоду видимость может ухудшаться дымом, пылью или мглою.
Явления - указаны атмосферные явления, наблюдавшиеся в срок или в последний час перед сроком; фигурными скобками обозначены явления, наблюдавшиеся между сроками (за 1-3 часа до срока); квадратными скобками обозначены град или гололедные отложения с указанием их диаметра в мм.
Облачность - указаны через наклонную черту общая и нижняя облачность в баллах и высота нижней границы облаков в метрах; квадратными скобками обозначены формы облаков: Ci - перистые, Cs - перисто-слоистые, Cc - перисто-кучевые, Ac - высококучевые, As - высокослоистые, Sc - слоисто-кучевые, Ns - слоисто-дождевые, Cu - кучевые, Cb - кучево-дождевые. Подробнее классификацию облаков см. в Атласе облаков (PDF).
T - Температура воздуха - температура, измеренная на высоте 2 м над землей.
Td - Температура точки росы - температура, при понижении до которой содержащийся в воздухе водяной пар достигнет насыщения.
f - Относительная влажность воздуха - влажноcть воздуха, измеренная на высоте 2 м над землей.
Te - Эффективная температура - температура, которую ощущает одетый по сезону человек в тени. Характеристика душности погоды. При расчете учитывается влияние влажности воздуха и скорости ветра на теплоощущения человека.
Tes - Эффективная температура на солнце - температура, которую ощущает человек, с поправкой на солнечный нагрев. Характеристика знойности погоды. Зависит от высоты солнца над горизонтом, облачности и скорости ветра. Ночью, в пасмурную погоду, а также при ветре 12 м/с и более поправка равна нулю.
P - Атмосферное давление - приведенное к уровню моря атмосферное давление.
Po - Атмосферное давление - измеренное на уровне метеостанции атмосферное давление.
Tmin - Минимальная температура - минимум температуры воздуха на высоте 2 м над землей.
Tmax - Максимальная температура - максимум температуры воздуха на высоте 2 м над землей.
R - Количество осадков - Количество выпавших осадков за период времени, мм. При наведении курсора мыши на число - период времени, за который выпало указанное количество осадков.
R24 - Количество осадков - Количество выпавших осадков за 24 часа, мм.
S - Снежный покров - Высота снежного покрова, см. При наведении курсора мыши на число - состояние снежного покрова и степень покрытия местности в баллах.